When you browse on this site, cookies collect data to enhance your experience and personalize the content and advertising you see.
Visit our Privacy Policy to learn more. By continuing to use the site, you agree to this use of cookies and data.
EN

Hourly Weather Callao

Today, 7 July, Tuesday

Time Temperature Precipitation Wind Pressure Humidity
00:00 +8°C° 0 mm 0 mps 540 mmHg 56%
01:00 +8°C° 0 mm 0 mps 539 mmHg 54%
02:00 +7°C° 0 mm 0 mps 539 mmHg 56%
03:00 +7°C° 0 mm 0 mps 538 mmHg 57%
04:00 +6°C° 0 mm 0 mps 538 mmHg 59%
05:00 +6°C° 0 mm 0 mps 538 mmHg 58%
06:00 +7°C° 0 mm 0 mps 539 mmHg 57%
07:00 +7°C° 0 mm 0 mps 539 mmHg 57%
08:00 +10°C° 0 mm 1 mps 540 mmHg 50%
09:00 +12°C° 0 mm 2 mps 542 mmHg 44%
10:00 +13°C° 0 mm 3 mps 543 mmHg 38%
11:00 +14°C° 0 mm 3 mps 543 mmHg 40%
12:00 +14°C° 0 mm 3 mps 543 mmHg 41%
13:00 +14°C° 0 mm 4 mps 542 mmHg 43%
14:00 +14°C° 0 mm 3 mps 542 mmHg 46%
15:00 +13°C° 0 mm 3 mps 541 mmHg 50%
16:00 +12°C° 0 mm 3 mps 540 mmHg 53%
17:00 +12°C° 0 mm 2 mps 540 mmHg 59%
18:00 +11°C° 0 mm 1 mps 539 mmHg 65%
19:00 +9°C° 0 mm 0 mps 539 mmHg 71%
20:00 +8°C° 0 mm 0 mps 539 mmHg 71%
21:00 +8°C° 0 mm 0 mps 539 mmHg 71%
22:00 +7°C° 0 mm 0 mps 539 mmHg 71%
23:00 +7°C° 0 mm 0 mps 538 mmHg 69%

Tomorrow, 8 July, Wednesday

Time Temperature Precipitation Wind Pressure Humidity
00:00 +7°C° 0 mm 0 mps 538 mmHg 68%
01:00 +6°C° 0 mm 0 mps 538 mmHg 66%
02:00 +6°C° 0 mm 0 mps 537 mmHg 66%
03:00 +6°C° 0 mm 0 mps 537 mmHg 65%
04:00 +5°C° 0 mm 0 mps 536 mmHg 65%
05:00 +6°C° 0 mm 0 mps 537 mmHg 62%
06:00 +6°C° 0 mm 0 mps 538 mmHg 60%
07:00 +7°C° 0 mm 0 mps 538 mmHg 57%
08:00 +10°C° 0 mm 1 mps 539 mmHg 51%
09:00 +12°C° 0 mm 2 mps 541 mmHg 45%
10:00 +13°C° 0 mm 3 mps 542 mmHg 39%
11:00 +13°C° 0 mm 3 mps 542 mmHg 41%
12:00 +14°C° 0 mm 3 mps 542 mmHg 42%
13:00 +14°C° 0 mm 4 mps 541 mmHg 43%
14:00 +13°C° 0 mm 4 mps 541 mmHg 47%
15:00 +13°C° 0 mm 3 mps 540 mmHg 51%
16:00 +12°C° 0 mm 3 mps 539 mmHg 56%
17:00 +12°C° 0 mm 2 mps 539 mmHg 61%
18:00 +10°C° 0 mm 1 mps 539 mmHg 67%
19:00 +8°C° 0 mm 0 mps 538 mmHg 73%
20:00 +8°C° 0 mm 0 mps 538 mmHg 72%
21:00 +7°C° 0 mm 0 mps 538 mmHg 71%
22:00 +7°C° 0 mm 0 mps 538 mmHg 69%
23:00 +7°C° 0 mm 0 mps 538 mmHg 70%

Day after tomorrow, 9 July, Thursday

Time Temperature Precipitation Wind Pressure Humidity
00:00 +8°C° 0 mm 1 mps 538 mmHg 70%
01:00 +7°C° 0 mm 1 mps 538 mmHg 71%
02:00 +7°C° 0 mm 1 mps 538 mmHg 72%
03:00 +7°C° 0 mm 1 mps 537 mmHg 73%
04:00 +6°C° 0 mm 0 mps 537 mmHg 73%
05:00 +6°C° 0 mm 0 mps 538 mmHg 72%
06:00 +6°C° 0 mm 0 mps 538 mmHg 70%
07:00 +7°C° 0 mm 0 mps 538 mmHg 68%
08:00 +10°C° 0 mm 1 mps 539 mmHg 61%
09:00 +11°C° 0 mm 1 mps 541 mmHg 53%
10:00 +13°C° 0 mm 2 mps 542 mmHg 46%
11:00 +13°C° 0 mm 3 mps 542 mmHg 46%
12:00 +13°C° 0 mm 3 mps 542 mmHg 46%
13:00 +13°C° 0 mm 3 mps 541 mmHg 46%
14:00 +13°C° 0 mm 3 mps 541 mmHg 49%
15:00 +12°C° 0 mm 3 mps 540 mmHg 52%
16:00 +12°C° 0 mm 3 mps 540 mmHg 55%
17:00 +12°C° 0 mm 2 mps 540 mmHg 59%
18:00 +11°C° 0 mm 1 mps 539 mmHg 63%
19:00 +9°C° 0 mm 0 mps 539 mmHg 67%
20:00 +9°C° 0 mm 0 mps 539 mmHg 66%
21:00 +9°C° 0 mm 0 mps 540 mmHg 64%
22:00 +10°C° 0 mm 1 mps 540 mmHg 62%
23:00 +10°C° 0 mm 1 mps 540 mmHg 60%

10 July, Friday

Time Temperature Precipitation Wind Pressure Humidity
00:00 +10°C° 0 mm 1 mps 540 mmHg 57%
01:00 +10°C° 0 mm 1 mps 540 mmHg 55%
02:00 +8°C° 0 mm 0 mps 539 mmHg 55%
03:00 +7°C° 0 mm 0 mps 539 mmHg 55%
04:00 +7°C° 0 mm 0 mps 538 mmHg 55%
05:00 +7°C° 0 mm 0 mps 539 mmHg 54%
06:00 +8°C° 0 mm 0 mps 539 mmHg 52%
07:00 +8°C° 0 mm 0 mps 540 mmHg 51%
08:00 +11°C° 0 mm 1 mps 541 mmHg 45%
09:00 +13°C° 0 mm 2 mps 542 mmHg 39%
10:00 +15°C° 0 mm 2 mps 544 mmHg 33%
11:00 +14°C° 0 mm 3 mps 543 mmHg 34%
12:00 +16°C° 0 mm 3 mps 543 mmHg 35%
13:00 +15°C° 0 mm 4 mps 543 mmHg 36%
14:00 +14°C° 0 mm 4 mps 543 mmHg 38%
15:00 +14°C° 0 mm 3 mps 542 mmHg 41%
16:00 +13°C° 0 mm 3 mps 542 mmHg 43%
17:00 +13°C° 0 mm 2 mps 541 mmHg 50%
18:00 +11°C° 0 mm 1 mps 540 mmHg 56%
19:00 +9°C° 0 mm 0 mps 540 mmHg 62%
20:00 +9°C° 0 mm 0 mps 540 mmHg 62%
21:00 +8°C° 0 mm 0 mps 540 mmHg 61%
22:00 +8°C° 0 mm 0 mps 540 mmHg 61%
23:00 +8°C° 0 mm 0 mps 539 mmHg 60%

11 July, Saturday

Time Temperature Precipitation Wind Pressure Humidity
00:00 +7°C° 0 mm 0 mps 539 mmHg 59%
01:00 +7°C° 0 mm 0 mps 539 mmHg 58%
02:00 +7°C° 0 mm 0 mps 538 mmHg 58%
03:00 +6°C° 0 mm 0 mps 538 mmHg 58%
04:00 +6°C° 0 mm 0 mps 538 mmHg 59%
05:00 +6°C° 0 mm 0 mps 538 mmHg 58%
06:00 +7°C° 0 mm 0 mps 538 mmHg 57%
07:00 +7°C° 0 mm 0 mps 539 mmHg 56%
08:00 +11°C° 0 mm 1 mps 540 mmHg 49%
09:00 +13°C° 0 mm 2 mps 542 mmHg 42%
10:00 +15°C° 0 mm 2 mps 543 mmHg 34%
11:00 +16°C° 0 mm 3 mps 543 mmHg 34%
12:00 +16°C° 0 mm 3 mps 543 mmHg 35%
13:00 +15°C° 0 mm 4 mps 542 mmHg 35%
14:00 +16°C° 0 mm 3 mps 542 mmHg 38%
15:00 +14°C° 0 mm 3 mps 541 mmHg 41%
16:00 +15°C° 0 mm 2 mps 541 mmHg 44%
17:00 +13°C° 0.1 mm 2 mps 540 mmHg 50%
18:00 +12°C° 0.1 mm 1 mps 540 mmHg 56%
19:00 +10°C° 0.1 mm 0 mps 539 mmHg 62%
20:00 +9°C° 0 mm 0 mps 539 mmHg 62%
21:00 +9°C° 0 mm 0 mps 539 mmHg 62%
22:00 +9°C° 0 mm 0 mps 539 mmHg 62%
23:00 +8°C° 0 mm 0 mps 539 mmHg 63%

12 July, Sunday

Time Temperature Precipitation Wind Pressure Humidity
00:00 +8°C° 0 mm 0 mps 538 mmHg 63%
01:00 +8°C° 0 mm 0 mps 538 mmHg 64%
02:00 +7°C° 0 mm 0 mps 538 mmHg 65%
03:00 +7°C° 0 mm 0 mps 537 mmHg 65%
04:00 +7°C° 0 mm 0 mps 537 mmHg 65%
05:00 +7°C° 0 mm 0 mps 538 mmHg 64%
06:00 +7°C° 0 mm 0 mps 538 mmHg 62%
07:00 +8°C° 0 mm 0 mps 539 mmHg 60%
08:00 +11°C° 0 mm 1 mps 540 mmHg 53%
09:00 +13°C° 0 mm 2 mps 541 mmHg 45%
10:00 +15°C° 0 mm 2 mps 542 mmHg 38%
11:00 +14°C° 0 mm 3 mps 542 mmHg 37%
12:00 +16°C° 0 mm 3 mps 542 mmHg 36%
13:00 +15°C° 0 mm 4 mps 542 mmHg 34%
14:00 +16°C° 0 mm 3 mps 541 mmHg 36%
15:00 +14°C° 0 mm 3 mps 541 mmHg 38%
16:00 +14°C° 0 mm 3 mps 540 mmHg 39%
17:00 +13°C° 0 mm 2 mps 540 mmHg 45%
18:00 +12°C° 0 mm 1 mps 539 mmHg 51%
19:00 +9°C° 0 mm 0 mps 539 mmHg 57%
20:00 +9°C° 0 mm 0 mps 539 mmHg 58%
21:00 +9°C° 0 mm 0 mps 539 mmHg 60%
22:00 +8°C° 0 mm 0 mps 540 mmHg 61%
23:00 +8°C° 0 mm 0 mps 539 mmHg 62%
Show more